Flag Weather past 2 weeks in Virudhunagar, Tamil Nadu, India

Now
81 °F

Fog.


Feels Like: 86 °F
Forecast: 74 / 88 °F
Wind: 3 mph from Northeast

Location: Tiruchchirapalli

Current Time: Nov 22, 2014 at 4:09:14 PM

Latest Report: Nov 22, 2014 at 3:40 PM


Visibility: 2 mi

Pressure: 29.80 "Hg

Humidity: 84%

Dew point: 75 °F

Location of VirudhunagarLocation

Historic Weather in Virudhunagar — Graph

°F

Virudhunagar temperature yesterday

Maximum temperature yesterday: 86 °F (at 2:40 PM)
Minimum temperature yesterday: 75 °F (at 2:40 AM)
Average temperature yesterday: 80 °F

Past Weeks' High & Low Weather Summary

 TemperatureHumidityPressure
High93 °F (Nov 8, 2:40 PM)100% (Nov 11, 8:40 PM)29.98 "Hg (Nov 11, 8:40 PM)
Low73 °F (Nov 14, 12:40 AM)44% (Nov 8, 2:10 PM)29.77 "Hg (Nov 7, 3:40 PM)
Average80 °F81%29.87 "Hg
* Reported Nov 7 2:40 PM — Nov 22 2:40 PM, Virudhunagar, Weather by CustomWeather, © 2014

Note: Actual official high and low records may vary slightly from our data, if they occured in-between our weather recording intervals... More about our weather records

Advertising

Virudhunagar weather history for previous 24 hours

 ConditionsComfort  
Time TempWeatherWind HumidityBarometerVisibility
2:40 PM
Nov 22
81 °FFog.3 mph84%29.83 "Hg1 mi
2:10 PM81 °FFog.3 mph84%29.83 "Hg1 mi
1:40 PM81 °FFog.5 mph84%29.86 "Hg1 mi
1:10 PM81 °FFog.5 mph84%29.86 "Hg1 mi
11:40 AM82 °FDrizzle. More clouds than sun.7 mph79%29.92 "Hg1 mi
11:10 AM82 °FFog.6 mph79%29.92 "Hg1 mi
10:40 AM81 °FFog.5 mph84%29.95 "Hg1 mi
10:10 AM79 °FFog.3 mph89%29.95 "Hg1 mi
9:40 AM77 °FFog.3 mph94%29.95 "Hg1 mi
9:10 AM75 °FFog.2 mph94%29.95 "Hg1 mi
8:10 AM75 °FDrizzle. Broken clouds.5 mph94%29.92 "Hg1 mi
7:40 AM73 °FDrizzle. Broken clouds.5 mph100%29.89 "Hg1 mi
7:10 AM75 °FDrizzle. Broken clouds.2 mph94%29.89 "Hg1 mi
6:40 AM75 °FFog.2 mph94%29.86 "Hg1 mi
5:40 AM75 °FPartly cloudy.3 mph94%29.86 "Hg1 mi
5:10 AM75 °FFog.7 mph94%29.83 "Hg1 mi
4:40 AM75 °FFog.6 mph94%29.83 "Hg1 mi
4:10 AM75 °FFog.5 mph94%29.83 "Hg1 mi
3:40 AM75 °FFog.6 mph94%29.83 "Hg1 mi
3:10 AM75 °FFog.6 mph94%29.83 "Hg1 mi
2:40 AM75 °FFog.6 mph94%29.86 "Hg1 mi
2:10 AM77 °FFog.5 mph89%29.86 "Hg1 mi
1:40 AM77 °FFog.6 mph89%29.86 "Hg1 mi
1:10 AM77 °FFog.3 mph89%29.89 "Hg1 mi
12:40 AM77 °FFog.5 mph89%29.89 "Hg1 mi
12:10 AM77 °FFog.6 mph89%29.89 "Hg1 mi
11:40 PM
Nov 21
77 °FFog.5 mph89%29.89 "Hg1 mi
11:10 PM79 °FFog.5 mph84%29.92 "Hg1 mi
10:40 PM79 °FFog.6 mph84%29.92 "Hg1 mi
10:10 PM79 °FFog.5 mph84%29.92 "Hg1 mi
9:40 PM79 °FPartly cloudy.3 mph84%29.92 "Hg1 mi
9:10 PM79 °FPartly cloudy.5 mph84%29.92 "Hg1 mi
8:40 PM81 °FPartly cloudy.3 mph79%29.89 "Hg1 mi
8:10 PM81 °FPartly cloudy.5 mph79%29.89 "Hg1 mi
7:40 PM81 °FPartly cloudy.7 mph79%29.86 "Hg1 mi
7:10 PM81 °FPartly cloudy.7 mph79%29.86 "Hg1 mi
6:40 PM81 °FPartly cloudy.7 mph79%29.83 "Hg1 mi
6:10 PM82 °FBroken clouds.7 mph74%29.83 "Hg1 mi
5:40 PM82 °FBroken clouds.7 mph74%29.83 "Hg1 mi
5:10 PM84 °FBroken clouds.6 mph70%29.83 "Hg1 mi
4:40 PM84 °FBroken clouds.7 mph70%29.83 "Hg1 mi
4:10 PM86 °FMore clouds than sun.7 mph66%29.80 "Hg1 mi
Weather by CustomWeather, © 2014

See weather overviewHow to use our weather pages